Regional Weather Roundup
Issued by NWS

Home | Current Version | Previous Version | Text Only | Print | Product List | Glossary Off
Versions: 1 2 3 4 5 6 7 8 9 10 11 12 13 14 15 16 17 18 19 20 21 22 23 24 25 26 27 28 29 30 31 32 33 34 35 36 37 38 39 40 41 42 43 44 45 46 47 48 49 50

000
ASUS45 KPSR 270810
RWRAZ

ARIZONA HOURLY REGIONAL WEATHER ROUNDUP
NATIONAL WEATHER SERVICE PHOENIX AZ
100 AM MST MON FEB 27 2017

NOTE: FAIR INDICATES FEW OR NO CLOUDS BELOW 12,000 FEET WITH NO
SIGNIFICANT WEATHER AND/OR OBSTRUCTIONS TO VISIBILITY.

AZZ001>003-036-270900-
NORTHWEST ARIZONA

CITY           SKY/WX    TMP DP  RH WIND       PRES   REMARKS
BULLHEAD CITY  MOCLDY    59  36  41 SE20      29.81F
KINGMAN        CLOUDY    47  22  37 S12       29.85S
$$

AZZ004>008-015-016-018-270900-
NORTH CENTRAL ARIZONA

CITY           SKY/WX    TMP DP  RH WIND       PRES   REMARKS
GRAND CANYON   CLOUDY    32  26  78 SW12      29.87S WCI  23
WILLIAMS       CLOUDY    34  23  64 S16G24    29.86F WCI  23
PRESCOTT       CLOUDY    40  28  62 S8        29.91S WCI  34
FLAGSTAFF      CLOUDY    31  23  72 SW17      29.87F WCI  19
PAYSON         CLOUDY    41  28  60 CALM      29.97S
PAGE           CLOUDY    45  20  36 S9        29.78F
$$

AZZ009>014-017-270900-
NORTHEAST ARIZONA

CITY           SKY/WX    TMP DP  RH WIND       PRES   REMARKS
WINSLOW        CLOUDY    34  24  67 CALM      29.89F
SAINT JOHNS    CLEAR     27  19  72 CALM      29.90S
WINDOW ROCK    CLOUDY    34  22  61 S6        29.90S WCI  29
SHOW LOW       MOCLDY    34  19  55 S18G25    29.91R WCI  23
$$

AZZ023-270900-
GREATER PHOENIX AREA

CITY           SKY/WX    TMP DP  RH WIND       PRES   REMARKS
PHOENIX        PTCLDY    54  38  54 E6        29.92S
BUCKEYE          N/A     48  39  71 E3        29.92F
LUKE AFB       PTCLDY    53  37  53 SW3       29.91S
DEER VALLEY    CLEAR     52  37  56 CALM      29.92S
SCOTTSDALE     CLEAR     50  36  58 CALM      29.94S
MESA-GATEWAY   CLEAR     46  36  66 S6        29.95S
$$

AZZ027-028-270900-
SOUTHWEST MARICOPA COUNTY AND PINAL COUNTY

CITY           SKY/WX    TMP DP  RH WIND       PRES   REMARKS
CASA GRANDE    NOT AVBL
$$

AZZ503-504-507>509-270900-
SOUTHEAST ARIZONA

CITY           SKY/WX    TMP DP  RH WIND       PRES   REMARKS
TUCSON         CLEAR     48  31  51 CALM      29.99S
DAVIS-MONTHAN  CLEAR     46  31  56 SE5       29.98S
NOGALES        CLEAR     41  26  55 S7        30.01R
SIERRA VISTA   CLEAR     48  23  37 SW12      30.00F
DOUGLAS        CLEAR     48  26  42 W8        30.01R
SAFFORD        CLEAR     36  26  67 E3        29.96R
$$

AZZ020-021-025-026-031-270900-
SOUTHWEST ARIZONA

CITY           SKY/WX    TMP DP  RH WIND       PRES   REMARKS
YUMA           CLEAR     53  39  59 SE5       29.92S
$$

CAZ031-033-041-043-047-048-061-270900-
SOUTHERN CALIFORNIA

CITY           SKY/WX    TMP DP  RH WIND       PRES   REMARKS
DOWNTOWN L.A.  CLOUDY    53  44  71 E5        29.97S
L.A. AIRPORT   MOCLDY    52  46  80 E6        29.97S
SAN DIEGO      CLOUDY    54  50  86 E3        30.00S
BURBANK        CLOUDY    50  41  71 SE10      29.95S
ONTARIO        MOCLDY    48  42  80 CALM      29.97S
RIVERSIDE      CLOUDY    47  44  90 E5        29.98S
PALM SPRINGS   CLEAR     50  41  71 S5        29.88R
EL CENTRO NAS  CLEAR     54  33  45 N3        29.90F
IMPERIAL       CLEAR     55  35  47 E5        29.89F
BLYTHE         CLEAR     52  39  61 S14       29.87F
NEEDLES        PTCLDY    55  37  50 SW6       29.83F
$$

NVZ020-UTZ003-270900-
SOUTHERN NEVADA-UTAH

CITY           SKY/WX    TMP DP  RH WIND       PRES   REMARKS
LAS VEGAS      MOCLDY    51  32  48 S8        29.76F
SALT LAKE CITY CLOUDY    40  21  46 S20G29    29.59F WCI  30
$$

NMZ009-TXZ055-270900-
NEW MEXICO-WEST TEXAS

CITY           SKY/WX    TMP DP  RH WIND       PRES   REMARKS
ALBUQUERQUE    CLEAR     31  22  69 SE7       29.94S WCI  24
EL PASO        PTCLDY    52  14  22 CALM      29.94S
$$


........................KEY........................
SKY/WX - SKY CONDITION/WEATHER
TMP    - TEMPERATURE IN FAHRENHEIT
DP     - DEW POINT IN FAHRENHEIT
RH     - RELATIVE HUMIDITY IN PERCENT
WIND   - DIRECTION AND SPEED IN MILES PER HOUR (MPH)
VRB    - VARIABLE WIND DIRECTION
PRES   - MEAN SEA LEVEL PRESSURE IN INCHES OF MERCURY
         F - FALLING PRESSURE   R - RISING PRESSURE
         S - STEADY PRESSURE
VSB    - VISIBILITY IN MILES
HX     - HEAT INDEX IN FAHRENHEIT
WCI    - WIND CHILL INDEX IN FAHRENHEIT
TC     - TEMPERATURE IN CELSIUS WHICH IS ALSO KNOWN AS
         TEMPERATURE IN CENTIGRADE
AFB    - AIR FORCE BASE
         LUKE AFB IS LUKE AIR FORCE BASE
         DAVIS-MONTHAN IS DAVIS-MONTHAN AIR FORCE BASE
NAS    - NAVAL AIR STATION
         EL CENTRO NAS IS EL CENTRO NAVAL AIR STATION
N/A    - NOT AVAILABLE




USA.gov is the U.S. government's official web portal to all federal, state and local government web resources and services.